Year,Month,Day,Hour,Minute,Value (Times are PST for temperature in C)
2018,05,13,00,00,17.30
2018,05,13,00,01,17.30
2018,05,13,00,02,17.30
2018,05,13,00,03,17.20
2018,05,13,00,04,17.20
2018,05,13,00,05,17.10
2018,05,13,00,06,17.10
2018,05,13,00,07,17.00
2018,05,13,00,08,17.00
2018,05,13,00,09,16.90
2018,05,13,00,10,16.80
2018,05,13,00,11,16.70
2018,05,13,00,12,16.70
2018,05,13,00,13,16.70
2018,05,13,00,14,16.60
2018,05,13,00,15,16.60
2018,05,13,00,16,16.50
2018,05,13,00,17,16.40
2018,05,13,00,18,16.40
2018,05,13,00,19,16.30
2018,05,13,00,20,16.30
2018,05,13,00,21,16.30
2018,05,13,00,22,16.30
2018,05,13,00,23,16.20
2018,05,13,00,24,16.20
2018,05,13,00,25,16.20
2018,05,13,00,26,16.10
2018,05,13,00,27,16.10
2018,05,13,00,28,16.10
2018,05,13,00,29,16.10
2018,05,13,00,30,16.10
2018,05,13,00,31,16.10
2018,05,13,00,32,16.00
2018,05,13,00,33,15.90
2018,05,13,00,34,15.90
2018,05,13,00,35,15.90
2018,05,13,00,36,15.90
2018,05,13,00,37,15.90
2018,05,13,00,38,16.10
2018,05,13,00,39,16.10
2018,05,13,00,40,16.00
2018,05,13,00,41,15.90
2018,05,13,00,42,15.90
2018,05,13,00,43,15.80
2018,05,13,00,44,15.80
2018,05,13,00,45,15.70
2018,05,13,00,46,15.60
2018,05,13,00,47,15.60
2018,05,13,00,48,15.50
2018,05,13,00,49,15.50
2018,05,13,00,50,15.50
2018,05,13,00,51,15.50
2018,05,13,00,52,15.60
2018,05,13,00,53,15.60
2018,05,13,00,54,15.60
2018,05,13,00,55,15.60
2018,05,13,00,56,15.60
2018,05,13,00,57,15.60
2018,05,13,00,58,15.60
2018,05,13,00,59,15.70
2018,05,13,01,00,15.60
2018,05,13,01,01,15.60
2018,05,13,01,02,15.60
2018,05,13,01,03,15.60
2018,05,13,01,04,15.50
2018,05,13,01,05,15.50
2018,05,13,01,06,15.40
2018,05,13,01,07,15.40
2018,05,13,01,08,15.40
2018,05,13,01,09,15.40
2018,05,13,01,10,15.40
2018,05,13,01,11,15.40
2018,05,13,01,12,15.40
2018,05,13,01,13,15.50
2018,05,13,01,14,15.50
2018,05,13,01,15,15.70
2018,05,13,01,16,15.80
2018,05,13,01,17,15.80
2018,05,13,01,18,15.80
2018,05,13,01,19,15.70
2018,05,13,01,20,15.70
2018,05,13,01,21,15.60
2018,05,13,01,22,15.50
2018,05,13,01,23,15.50
2018,05,13,01,24,15.50
2018,05,13,01,25,15.50
2018,05,13,01,26,15.50
2018,05,13,01,27,15.50
2018,05,13,01,28,15.50
2018,05,13,01,29,15.60
2018,05,13,01,30,15.60
2018,05,13,01,31,15.60
2018,05,13,01,32,15.60
2018,05,13,01,33,15.60
2018,05,13,01,34,15.60
2018,05,13,01,35,15.60
2018,05,13,01,36,15.60
2018,05,13,01,37,15.60
2018,05,13,01,38,15.60
2018,05,13,01,39,15.60
2018,05,13,01,40,15.60
2018,05,13,01,41,15.50
2018,05,13,01,42,15.50
2018,05,13,01,43,15.40
2018,05,13,01,44,15.40
2018,05,13,01,45,15.40
2018,05,13,01,46,15.40
2018,05,13,01,47,15.40
2018,05,13,01,48,15.40
2018,05,13,01,49,15.40
2018,05,13,01,50,15.40
2018,05,13,01,51,15.40
2018,05,13,01,52,15.40
2018,05,13,01,53,15.40
2018,05,13,01,54,15.50
2018,05,13,01,55,15.50
2018,05,13,01,56,15.60
2018,05,13,01,57,15.60
2018,05,13,01,58,15.70
2018,05,13,01,59,15.80
2018,05,13,02,00,15.80
2018,05,13,02,01,15.80
2018,05,13,02,02,15.80
2018,05,13,02,03,15.80
2018,05,13,02,04,15.80
2018,05,13,02,05,15.80
2018,05,13,02,06,15.80
2018,05,13,02,07,15.80
2018,05,13,02,08,15.90
2018,05,13,02,09,15.90
2018,05,13,02,10,16.00
2018,05,13,02,11,16.10
2018,05,13,02,12,16.10
2018,05,13,02,13,16.10
2018,05,13,02,14,16.10
2018,05,13,02,15,16.10
2018,05,13,02,16,16.10
2018,05,13,02,17,16.10
2018,05,13,02,18,16.10
2018,05,13,02,19,16.10
2018,05,13,02,20,16.10
2018,05,13,02,21,16.10
2018,05,13,02,22,16.00
2018,05,13,02,23,16.00
2018,05,13,02,24,15.90
2018,05,13,02,25,15.90
2018,05,13,02,26,15.90
2018,05,13,02,27,16.00
2018,05,13,02,28,16.00
2018,05,13,02,29,16.00
2018,05,13,02,30,16.00
2018,05,13,02,31,16.10
2018,05,13,02,32,16.00
2018,05,13,02,33,16.00
2018,05,13,02,34,15.90
2018,05,13,02,35,15.90
2018,05,13,02,36,15.90
2018,05,13,02,37,15.90
2018,05,13,02,38,15.90
2018,05,13,02,39,15.90
2018,05,13,02,40,15.90
2018,05,13,02,41,15.90
2018,05,13,02,42,15.90
2018,05,13,02,43,15.80
2018,05,13,02,44,15.80
2018,05,13,02,45,15.80
2018,05,13,02,46,15.80
2018,05,13,02,47,15.80
2018,05,13,02,48,15.70
2018,05,13,02,49,15.60
2018,05,13,02,50,15.60
2018,05,13,02,51,15.50
2018,05,13,02,52,15.50
2018,05,13,02,53,15.40
2018,05,13,02,54,15.30
2018,05,13,02,55,15.30
2018,05,13,02,56,15.30
2018,05,13,02,57,15.30
2018,05,13,02,58,15.20
2018,05,13,02,59,15.10
2018,05,13,03,00,15.10
2018,05,13,03,01,15.00
2018,05,13,03,02,15.00
2018,05,13,03,03,14.90
2018,05,13,03,04,14.80
2018,05,13,03,05,14.80
2018,05,13,03,06,14.70
2018,05,13,03,07,14.70
2018,05,13,03,08,14.60
2018,05,13,03,09,14.60
2018,05,13,03,10,14.50
2018,05,13,03,11,14.50
2018,05,13,03,12,14.50
2018,05,13,03,13,14.40
2018,05,13,03,14,14.40
2018,05,13,03,15,14.30
2018,05,13,03,16,14.30
2018,05,13,03,17,14.30
2018,05,13,03,18,14.30
2018,05,13,03,19,14.30
2018,05,13,03,20,14.20
2018,05,13,03,21,14.20
2018,05,13,03,22,14.30
2018,05,13,03,23,14.20
2018,05,13,03,24,14.20
2018,05,13,03,25,14.20
2018,05,13,03,26,14.20
2018,05,13,03,27,14.20
2018,05,13,03,28,14.20
2018,05,13,03,29,14.20
2018,05,13,03,30,14.20
2018,05,13,03,31,14.20
2018,05,13,03,32,14.20
2018,05,13,03,33,14.10
2018,05,13,03,34,14.10
2018,05,13,03,35,14.10
2018,05,13,03,36,14.10
2018,05,13,03,37,14.00
2018,05,13,03,38,14.00
2018,05,13,03,39,14.00
2018,05,13,03,40,14.00
2018,05,13,03,41,14.00
2018,05,13,03,42,13.90
2018,05,13,03,43,13.90
2018,05,13,03,44,13.90
2018,05,13,03,45,13.80
2018,05,13,03,46,13.80
2018,05,13,03,47,13.80
2018,05,13,03,48,13.70
2018,05,13,03,49,13.70
2018,05,13,03,50,13.70
2018,05,13,03,51,13.70
2018,05,13,03,52,13.70
2018,05,13,03,53,13.70
2018,05,13,03,54,13.70
2018,05,13,03,55,13.60
2018,05,13,03,56,13.60
2018,05,13,03,57,13.60
2018,05,13,03,58,13.60
2018,05,13,03,59,13.60
2018,05,13,04,00,13.60
2018,05,13,04,01,13.50
2018,05,13,04,02,13.50
2018,05,13,04,03,13.50
2018,05,13,04,04,13.50
2018,05,13,04,05,13.50
2018,05,13,04,06,13.50
2018,05,13,04,07,13.50
2018,05,13,04,08,13.50
2018,05,13,04,09,13.50
2018,05,13,04,10,13.50
2018,05,13,04,11,13.50
2018,05,13,04,12,13.40
2018,05,13,04,13,13.40
2018,05,13,04,14,13.40
2018,05,13,04,15,13.40
2018,05,13,04,16,13.40
2018,05,13,04,17,13.40
2018,05,13,04,18,13.40
2018,05,13,04,19,13.40
2018,05,13,04,20,13.30
2018,05,13,04,21,13.30
2018,05,13,04,22,13.30
2018,05,13,04,23,13.30
2018,05,13,04,24,13.30
2018,05,13,04,25,13.30
2018,05,13,04,26,13.30
2018,05,13,04,27,13.30
2018,05,13,04,28,13.30
2018,05,13,04,29,13.30
2018,05,13,04,30,13.30
2018,05,13,04,31,13.30
2018,05,13,04,32,13.30
2018,05,13,04,33,13.30
2018,05,13,04,34,13.20
2018,05,13,04,35,13.20
2018,05,13,04,36,13.20
2018,05,13,04,37,13.20
2018,05,13,04,38,13.20
2018,05,13,04,39,13.20
2018,05,13,04,40,13.20
2018,05,13,04,41,13.10
2018,05,13,04,42,13.10
2018,05,13,04,43,13.10
2018,05,13,04,44,13.10
2018,05,13,04,45,13.10
2018,05,13,04,46,13.10
2018,05,13,04,47,13.10
2018,05,13,04,48,13.10
2018,05,13,04,49,13.00
2018,05,13,04,50,13.00
2018,05,13,04,51,13.00
2018,05,13,04,52,13.00
2018,05,13,04,53,13.00
2018,05,13,04,54,13.00
2018,05,13,04,55,12.90
2018,05,13,04,56,12.90
2018,05,13,04,57,12.90
2018,05,13,04,58,12.80
2018,05,13,04,59,12.80
2018,05,13,05,00,12.80
2018,05,13,05,01,12.80
2018,05,13,05,02,12.80
2018,05,13,05,03,12.70
2018,05,13,05,04,12.70
2018,05,13,05,05,12.60
2018,05,13,05,06,12.60
2018,05,13,05,07,12.60
2018,05,13,05,08,12.50
2018,05,13,05,09,12.50
2018,05,13,05,10,12.50
2018,05,13,05,11,12.50
2018,05,13,05,12,12.40
2018,05,13,05,13,12.40
2018,05,13,05,14,12.40
2018,05,13,05,15,12.40
2018,05,13,05,16,12.40
2018,05,13,05,17,12.40
2018,05,13,05,18,12.40
2018,05,13,05,19,12.30
2018,05,13,05,20,12.30
2018,05,13,05,21,12.30
2018,05,13,05,22,12.30
2018,05,13,05,23,12.30
2018,05,13,05,24,12.30
2018,05,13,05,25,12.30
2018,05,13,05,26,12.30
2018,05,13,05,27,12.40
2018,05,13,05,28,12.40
2018,05,13,05,29,12.40
2018,05,13,05,30,12.50
2018,05,13,05,31,12.50
2018,05,13,05,32,12.50
2018,05,13,05,33,12.50
2018,05,13,05,34,12.50
2018,05,13,05,35,12.50
2018,05,13,05,36,12.50
2018,05,13,05,37,12.50
2018,05,13,05,38,12.50
2018,05,13,05,39,12.50
2018,05,13,05,40,12.50
2018,05,13,05,41,12.50
2018,05,13,05,42,12.50
2018,05,13,05,43,12.50
2018,05,13,05,44,12.50
2018,05,13,05,45,12.50
2018,05,13,05,46,12.50
2018,05,13,05,47,12.50
2018,05,13,05,48,12.50
2018,05,13,05,49,12.50
2018,05,13,05,50,12.50
2018,05,13,05,51,12.50
2018,05,13,05,52,12.50
2018,05,13,05,53,12.50
2018,05,13,05,54,12.50
2018,05,13,05,55,12.50
2018,05,13,05,56,12.60
2018,05,13,05,57,12.70
2018,05,13,05,58,12.70
2018,05,13,05,59,12.80
2018,05,13,06,00,12.80
2018,05,13,06,01,12.80
2018,05,13,06,02,12.80
2018,05,13,06,03,12.80
2018,05,13,06,04,12.80
2018,05,13,06,05,12.80
2018,05,13,06,06,12.90
2018,05,13,06,07,12.90
2018,05,13,06,08,12.90
2018,05,13,06,09,12.90
2018,05,13,06,10,12.90
2018,05,13,06,11,12.90
2018,05,13,06,12,12.90
2018,05,13,06,13,13.00
2018,05,13,06,14,13.00
2018,05,13,06,15,13.00
2018,05,13,06,16,13.00
2018,05,13,06,17,13.00
2018,05,13,06,18,13.00
2018,05,13,06,19,13.10
2018,05,13,06,20,13.10
2018,05,13,06,21,13.10
2018,05,13,06,22,13.10
2018,05,13,06,23,13.10
2018,05,13,06,24,13.10
2018,05,13,06,25,13.10
2018,05,13,06,26,13.10
2018,05,13,06,27,13.10
2018,05,13,06,28,13.10
2018,05,13,06,29,13.20
2018,05,13,06,30,13.20
2018,05,13,06,31,13.30
2018,05,13,06,32,13.50
2018,05,13,06,33,13.60
2018,05,13,06,34,13.70
2018,05,13,06,35,13.80
2018,05,13,06,36,13.90
2018,05,13,06,37,14.10
2018,05,13,06,38,14.20
2018,05,13,06,39,14.20
2018,05,13,06,40,14.40
2018,05,13,06,41,14.40
2018,05,13,06,42,14.50
2018,05,13,06,43,14.50
2018,05,13,06,44,14.60
2018,05,13,06,45,14.60
2018,05,13,06,46,14.70
2018,05,13,06,47,14.70
2018,05,13,06,48,14.80
2018,05,13,06,49,14.80
2018,05,13,06,50,14.80
2018,05,13,06,51,14.80
2018,05,13,06,52,14.80
2018,05,13,06,53,14.80
2018,05,13,06,54,14.80
2018,05,13,06,55,14.80
2018,05,13,06,56,14.80
2018,05,13,06,57,14.80
2018,05,13,06,58,14.80
2018,05,13,06,59,14.80
2018,05,13,07,00,14.80
2018,05,13,07,01,14.90
2018,05,13,07,02,14.90
2018,05,13,07,03,14.90
2018,05,13,07,04,14.90
2018,05,13,07,05,15.00
2018,05,13,07,06,15.00
2018,05,13,07,07,15.00
2018,05,13,07,08,15.00
2018,05,13,07,09,15.10
2018,05,13,07,10,15.10
2018,05,13,07,11,15.20
2018,05,13,07,12,15.20
2018,05,13,07,13,15.10
2018,05,13,07,14,15.10
2018,05,13,07,15,15.00
2018,05,13,07,16,15.00
2018,05,13,07,17,14.90
2018,05,13,07,18,14.90
2018,05,13,07,19,14.90
2018,05,13,07,20,15.00
2018,05,13,07,21,15.00
2018,05,13,07,22,15.00
2018,05,13,07,23,15.00
2018,05,13,07,24,15.00
2018,05,13,07,25,15.10
2018,05,13,07,26,15.10
2018,05,13,07,27,15.10
2018,05,13,07,28,15.20
2018,05,13,07,29,15.20
2018,05,13,07,30,15.10
2018,05,13,07,31,15.10
2018,05,13,07,32,15.20
2018,05,13,07,33,15.20
2018,05,13,07,34,15.20
2018,05,13,07,35,15.20
2018,05,13,07,36,15.30
2018,05,13,07,37,15.30
2018,05,13,07,38,15.30
2018,05,13,07,39,15.30
2018,05,13,07,40,15.30
2018,05,13,07,41,15.30
2018,05,13,07,42,15.30
2018,05,13,07,43,15.30
2018,05,13,07,44,15.40
2018,05,13,07,45,15.40
2018,05,13,07,46,15.30
2018,05,13,07,47,15.30
2018,05,13,07,48,15.30
2018,05,13,07,49,15.30
2018,05,13,07,50,15.30
2018,05,13,07,51,15.20
2018,05,13,07,52,15.20
2018,05,13,07,53,15.20
2018,05,13,07,54,15.20
2018,05,13,07,55,15.30
2018,05,13,07,56,15.30
2018,05,13,07,57,15.30
2018,05,13,07,58,15.30
2018,05,13,07,59,15.40
2018,05,13,08,00,15.50
2018,05,13,08,01,15.50
2018,05,13,08,02,15.50
2018,05,13,08,03,15.50
2018,05,13,08,04,15.50
2018,05,13,08,05,15.50
2018,05,13,08,06,15.40
2018,05,13,08,07,15.30
2018,05,13,08,08,15.40
2018,05,13,08,09,15.50
2018,05,13,08,10,15.50
2018,05,13,08,11,15.50
2018,05,13,08,12,15.50
2018,05,13,08,13,15.60
2018,05,13,08,14,15.70
2018,05,13,08,15,15.80
2018,05,13,08,16,15.80
2018,05,13,08,17,15.80
2018,05,13,08,18,15.80
2018,05,13,08,19,15.80
2018,05,13,08,20,15.80
2018,05,13,08,21,15.90
2018,05,13,08,22,15.90
2018,05,13,08,23,15.80
2018,05,13,08,24,15.80
2018,05,13,08,25,15.80
2018,05,13,08,26,15.80
2018,05,13,08,27,15.80
2018,05,13,08,28,15.80
2018,05,13,08,29,15.80
2018,05,13,08,30,15.80
2018,05,13,08,31,15.80
2018,05,13,08,32,15.80
2018,05,13,08,33,15.80
2018,05,13,08,34,15.80
2018,05,13,08,35,15.70
2018,05,13,08,36,15.70
2018,05,13,08,37,15.80
2018,05,13,08,38,15.80
2018,05,13,08,39,15.90
2018,05,13,08,40,16.00
2018,05,13,08,41,16.10
2018,05,13,08,42,16.10
2018,05,13,08,43,16.10
2018,05,13,08,44,16.20
2018,05,13,08,45,16.30
2018,05,13,08,46,16.30
2018,05,13,08,47,16.30
2018,05,13,08,48,16.40
2018,05,13,08,49,16.30
2018,05,13,08,50,16.40
2018,05,13,08,51,16.30
2018,05,13,08,52,16.30
2018,05,13,08,53,16.40
2018,05,13,08,54,16.60
2018,05,13,08,55,16.70
2018,05,13,08,56,16.80
2018,05,13,08,57,16.90
2018,05,13,08,58,17.00
2018,05,13,08,59,16.90
2018,05,13,09,00,16.90
2018,05,13,09,01,16.80
2018,05,13,09,02,16.70
2018,05,13,09,03,16.80
2018,05,13,09,04,16.80
2018,05,13,09,05,16.90
2018,05,13,09,06,17.00
2018,05,13,09,07,17.00
2018,05,13,09,08,17.00
2018,05,13,09,09,17.00
2018,05,13,09,10,17.00
2018,05,13,09,11,17.00
2018,05,13,09,12,17.00
2018,05,13,09,13,16.90
2018,05,13,09,14,16.90
2018,05,13,09,15,16.90
2018,05,13,09,16,16.90
2018,05,13,09,17,16.90
2018,05,13,09,18,16.90
2018,05,13,09,19,16.90
2018,05,13,09,20,16.90
2018,05,13,09,21,17.00
2018,05,13,09,22,17.10
2018,05,13,09,23,17.30
2018,05,13,09,24,17.30
2018,05,13,09,25,17.30
2018,05,13,09,26,17.20
2018,05,13,09,27,17.10
2018,05,13,09,28,17.10
2018,05,13,09,29,17.10
2018,05,13,09,30,17.20
2018,05,13,09,31,17.30
2018,05,13,09,32,17.40
2018,05,13,09,33,17.40
2018,05,13,09,34,17.50
2018,05,13,09,35,17.70
2018,05,13,09,36,17.80
2018,05,13,09,37,17.80
2018,05,13,09,38,17.70
2018,05,13,09,39,17.50
2018,05,13,09,40,17.40
2018,05,13,09,41,17.40
2018,05,13,09,42,17.50
2018,05,13,09,43,17.50
2018,05,13,09,44,17.50
2018,05,13,09,45,17.40
2018,05,13,09,46,17.40
2018,05,13,09,47,17.40
2018,05,13,09,48,17.40
2018,05,13,09,49,17.50
2018,05,13,09,50,17.60
2018,05,13,09,51,17.60
2018,05,13,09,52,17.60
2018,05,13,09,53,17.50
2018,05,13,09,54,17.50
2018,05,13,09,55,17.50
2018,05,13,09,56,17.40
2018,05,13,09,57,17.40
2018,05,13,09,58,17.40
2018,05,13,09,59,17.40
2018,05,13,10,00,17.50
2018,05,13,10,01,17.50
2018,05,13,10,02,17.60
2018,05,13,10,03,17.70
2018,05,13,10,04,17.70
2018,05,13,10,05,17.80
2018,05,13,10,06,17.70
2018,05,13,10,07,17.70
2018,05,13,10,08,17.70
2018,05,13,10,09,17.60
2018,05,13,10,10,17.50
2018,05,13,10,11,17.40
2018,05,13,10,12,17.40
2018,05,13,10,13,17.40
2018,05,13,10,14,17.40
2018,05,13,10,15,17.40
2018,05,13,10,16,17.40
2018,05,13,10,17,17.40
2018,05,13,10,18,17.40
2018,05,13,10,19,17.40
2018,05,13,10,20,17.40
2018,05,13,10,21,17.30
2018,05,13,10,22,17.30
2018,05,13,10,23,17.30
2018,05,13,10,24,17.30
2018,05,13,10,25,17.40
2018,05,13,10,26,17.40
2018,05,13,10,27,17.50
2018,05,13,10,28,17.50
2018,05,13,10,29,17.50
2018,05,13,10,30,17.60
2018,05,13,10,31,17.70
2018,05,13,10,32,17.70
2018,05,13,10,33,17.80
2018,05,13,10,34,17.90
2018,05,13,10,35,17.90
2018,05,13,10,36,17.90
2018,05,13,10,37,18.10
2018,05,13,10,38,18.10
2018,05,13,10,39,18.10
2018,05,13,10,40,18.10
2018,05,13,10,41,18.20
2018,05,13,10,42,18.10
2018,05,13,10,43,18.00
2018,05,13,10,44,17.90
2018,05,13,10,45,17.80
2018,05,13,10,46,17.80
2018,05,13,10,47,17.80
2018,05,13,10,48,17.80
2018,05,13,10,49,17.90
2018,05,13,10,50,18.10
2018,05,13,10,51,18.00
2018,05,13,10,52,18.10
2018,05,13,10,53,18.20
2018,05,13,10,54,18.20
2018,05,13,10,55,18.20
2018,05,13,10,56,18.10
2018,05,13,10,57,18.10
2018,05,13,10,58,18.20
2018,05,13,10,59,18.20
2018,05,13,11,00,18.30
2018,05,13,11,01,18.30
2018,05,13,11,02,18.30
2018,05,13,11,03,18.20
2018,05,13,11,04,17.90
2018,05,13,11,05,17.80
2018,05,13,11,06,17.80
2018,05,13,11,07,17.80
2018,05,13,11,08,17.90
2018,05,13,11,09,17.90
2018,05,13,11,10,17.90
2018,05,13,11,11,18.00
2018,05,13,11,12,18.10
2018,05,13,11,13,18.10
2018,05,13,11,14,18.20
2018,05,13,11,15,18.10
2018,05,13,11,16,18.00
2018,05,13,11,17,18.00
2018,05,13,11,18,18.10
2018,05,13,11,19,18.20
2018,05,13,11,20,18.20
2018,05,13,11,21,18.30
2018,05,13,11,22,18.40
2018,05,13,11,23,18.40
2018,05,13,11,24,18.40
2018,05,13,11,25,18.40
2018,05,13,11,26,18.40
2018,05,13,11,27,18.50
2018,05,13,11,28,18.50
2018,05,13,11,29,18.60
2018,05,13,11,30,18.60
2018,05,13,11,31,18.70
2018,05,13,11,32,18.70
2018,05,13,11,33,18.80
2018,05,13,11,34,18.70
2018,05,13,11,35,18.70
2018,05,13,11,36,18.60
2018,05,13,11,37,18.50
2018,05,13,11,38,18.50
2018,05,13,11,39,18.40
2018,05,13,11,40,18.30
2018,05,13,11,41,18.30
2018,05,13,11,42,18.30
2018,05,13,11,43,18.30
2018,05,13,11,44,18.40
2018,05,13,11,45,18.50
2018,05,13,11,46,18.60
2018,05,13,11,47,18.70
2018,05,13,11,48,18.80
2018,05,13,11,49,18.90
2018,05,13,11,50,18.90
2018,05,13,11,51,18.70
2018,05,13,11,52,18.50
2018,05,13,11,53,18.50
2018,05,13,11,54,18.60
2018,05,13,11,55,18.70
2018,05,13,11,56,18.70
2018,05,13,11,57,18.80
2018,05,13,11,58,18.80
2018,05,13,11,59,18.70
2018,05,13,12,00,18.70
2018,05,13,12,01,18.60
2018,05,13,12,02,18.50
2018,05,13,12,03,18.50
2018,05,13,12,04,18.50
2018,05,13,12,05,18.50
2018,05,13,12,06,18.50
2018,05,13,12,07,18.60
2018,05,13,12,08,18.60
2018,05,13,12,09,18.70
2018,05,13,12,10,18.80
2018,05,13,12,11,18.80
2018,05,13,12,12,18.80
2018,05,13,12,13,18.70
2018,05,13,12,14,18.60
2018,05,13,12,15,18.60
2018,05,13,12,16,18.50
2018,05,13,12,17,18.50
2018,05,13,12,18,18.70
2018,05,13,12,19,18.80
2018,05,13,12,20,18.90
2018,05,13,12,21,19.10
2018,05,13,12,22,19.20
2018,05,13,12,23,19.30
2018,05,13,12,24,19.30
2018,05,13,12,25,19.40
2018,05,13,12,26,19.40
2018,05,13,12,27,19.20
2018,05,13,12,28,19.10
2018,05,13,12,29,19.10
2018,05,13,12,30,19.00
2018,05,13,12,31,18.90
2018,05,13,12,32,18.90
2018,05,13,12,33,19.00
2018,05,13,12,34,19.10
2018,05,13,12,35,19.20
2018,05,13,12,36,19.20
2018,05,13,12,37,19.20
2018,05,13,12,38,19.30
2018,05,13,12,39,19.40
2018,05,13,12,40,19.50
2018,05,13,12,41,19.50
2018,05,13,12,42,19.60
2018,05,13,12,43,19.60
2018,05,13,12,44,19.50
2018,05,13,12,45,19.40
2018,05,13,12,46,19.40
2018,05,13,12,47,19.40
2018,05,13,12,48,19.40
2018,05,13,12,49,19.40
2018,05,13,12,50,19.40
2018,05,13,12,51,19.30
2018,05,13,12,52,19.20
2018,05,13,12,53,19.10
2018,05,13,12,54,19.00
2018,05,13,12,55,18.90
2018,05,13,12,56,19.00
2018,05,13,12,57,19.10
2018,05,13,12,58,19.10
2018,05,13,12,59,19.10
2018,05,13,13,00,19.10
2018,05,13,13,01,19.10
2018,05,13,13,02,19.10
2018,05,13,13,03,19.20
2018,05,13,13,04,19.30
2018,05,13,13,05,19.30
2018,05,13,13,06,19.40
2018,05,13,13,07,19.30
2018,05,13,13,08,19.30
2018,05,13,13,09,19.30
2018,05,13,13,10,19.40
2018,05,13,13,11,19.40
2018,05,13,13,12,19.50
2018,05,13,13,13,19.60
2018,05,13,13,14,19.60
2018,05,13,13,15,19.60
2018,05,13,13,16,19.60
2018,05,13,13,17,19.60
2018,05,13,13,18,19.70
2018,05,13,13,19,19.70
2018,05,13,13,20,19.80
2018,05,13,13,21,19.90
2018,05,13,13,22,19.90
2018,05,13,13,23,20.00
2018,05,13,13,24,20.20
2018,05,13,13,25,20.20
2018,05,13,13,26,20.20
2018,05,13,13,27,20.20
2018,05,13,13,28,20.20
2018,05,13,13,29,20.20
2018,05,13,13,30,20.20
2018,05,13,13,31,20.20
2018,05,13,13,32,20.20
2018,05,13,13,33,20.10
2018,05,13,13,34,20.10
2018,05,13,13,35,20.20
2018,05,13,13,36,20.20
2018,05,13,13,37,20.20
2018,05,13,13,38,20.20
2018,05,13,13,39,20.20
2018,05,13,13,40,20.20
2018,05,13,13,41,20.20
2018,05,13,13,42,20.20
2018,05,13,13,43,20.20
2018,05,13,13,44,20.20
2018,05,13,13,45,20.30
2018,05,13,13,46,20.40
2018,05,13,13,47,20.40
2018,05,13,13,48,20.40
2018,05,13,13,49,20.50
2018,05,13,13,50,20.50
2018,05,13,13,51,20.60
2018,05,13,13,52,20.60
2018,05,13,13,53,20.80
2018,05,13,13,54,20.90
2018,05,13,13,55,20.90
2018,05,13,13,56,20.90
2018,05,13,13,57,21.00
2018,05,13,13,58,21.00
2018,05,13,13,59,21.10
2018,05,13,14,00,21.00
2018,05,13,14,01,21.00
2018,05,13,14,02,21.00
2018,05,13,14,03,21.10
2018,05,13,14,04,21.10
2018,05,13,14,05,21.00
2018,05,13,14,06,21.00
2018,05,13,14,07,21.10
2018,05,13,14,08,21.20
2018,05,13,14,09,21.30
2018,05,13,14,10,21.30
2018,05,13,14,11,21.30
2018,05,13,14,12,21.30
2018,05,13,14,13,21.30
2018,05,13,14,14,21.30
2018,05,13,14,15,21.30
2018,05,13,14,16,21.30
2018,05,13,14,17,21.20
2018,05,13,14,18,21.10
2018,05,13,14,19,21.10
2018,05,13,14,20,21.10
2018,05,13,14,21,21.20
2018,05,13,14,22,21.30
2018,05,13,14,23,21.40
2018,05,13,14,24,21.50
2018,05,13,14,25,21.60
2018,05,13,14,26,21.60
2018,05,13,14,27,21.60
2018,05,13,14,28,21.60
2018,05,13,14,29,21.60
2018,05,13,14,30,21.60
2018,05,13,14,31,21.60
2018,05,13,14,32,21.60
2018,05,13,14,33,21.60
2018,05,13,14,34,21.60
2018,05,13,14,35,21.60
2018,05,13,14,36,21.60
2018,05,13,14,37,21.60
2018,05,13,14,38,21.60
2018,05,13,14,39,21.50
2018,05,13,14,40,21.40
2018,05,13,14,41,21.40
2018,05,13,14,42,21.40
2018,05,13,14,43,21.40
2018,05,13,14,44,21.40
2018,05,13,14,45,21.40
2018,05,13,14,46,21.60
2018,05,13,14,47,21.40
2018,05,13,14,48,21.50
2018,05,13,14,49,21.60
2018,05,13,14,50,21.60
2018,05,13,14,51,21.80
2018,05,13,14,52,21.90
2018,05,13,14,53,22.00
2018,05,13,14,54,22.00
2018,05,13,14,55,22.00
2018,05,13,14,56,22.10
2018,05,13,14,57,22.10
2018,05,13,14,58,22.00
2018,05,13,14,59,22.00
2018,05,13,15,00,22.00
2018,05,13,15,01,22.10
2018,05,13,15,02,22.10
2018,05,13,15,03,22.10
2018,05,13,15,04,22.10
2018,05,13,15,05,22.20
2018,05,13,15,06,22.20
2018,05,13,15,07,22.20
2018,05,13,15,08,22.20
2018,05,13,15,09,22.10
2018,05,13,15,10,22.00
2018,05,13,15,11,21.90
2018,05,13,15,12,21.80
2018,05,13,15,13,21.70
2018,05,13,15,14,21.60
2018,05,13,15,15,21.60
2018,05,13,15,16,21.50
2018,05,13,15,17,21.40
2018,05,13,15,18,21.40
2018,05,13,15,19,21.60
2018,05,13,15,20,21.60
2018,05,13,15,21,21.60
2018,05,13,15,22,21.60
2018,05,13,15,23,21.60
2018,05,13,15,24,21.50
2018,05,13,15,25,21.40
2018,05,13,15,26,21.40
2018,05,13,15,27,21.40
2018,05,13,15,28,21.40
2018,05,13,15,29,21.40
2018,05,13,15,30,21.50
2018,05,13,15,31,21.60
2018,05,13,15,32,21.60
2018,05,13,15,33,21.80
2018,05,13,15,34,21.90
2018,05,13,15,35,21.90
2018,05,13,15,36,21.90
2018,05,13,15,37,22.00
2018,05,13,15,38,22.10
2018,05,13,15,39,22.10
2018,05,13,15,40,22.10
2018,05,13,15,41,22.10
2018,05,13,15,42,22.20
2018,05,13,15,43,22.20
2018,05,13,15,44,22.20
2018,05,13,15,45,22.20
2018,05,13,15,46,22.30
2018,05,13,15,47,22.30
2018,05,13,15,48,22.40
2018,05,13,15,49,22.40
2018,05,13,15,50,22.40
2018,05,13,15,51,22.40
2018,05,13,15,52,22.50
2018,05,13,15,53,22.50
2018,05,13,15,54,22.60
2018,05,13,15,55,22.60
2018,05,13,15,56,22.70
2018,05,13,15,57,22.70
2018,05,13,15,58,22.60
2018,05,13,15,59,22.60
2018,05,13,16,00,22.50
2018,05,13,16,01,22.50
2018,05,13,16,02,22.50
2018,05,13,16,03,22.50
2018,05,13,16,04,22.40
2018,05,13,16,05,22.40
2018,05,13,16,06,22.40
2018,05,13,16,07,22.40
2018,05,13,16,08,22.40
2018,05,13,16,09,22.40
2018,05,13,16,10,22.50
2018,05,13,16,11,22.50
2018,05,13,16,12,22.60
2018,05,13,16,13,22.60
2018,05,13,16,14,22.70
2018,05,13,16,15,22.70
2018,05,13,16,16,22.70
2018,05,13,16,17,22.70
2018,05,13,16,18,22.60
2018,05,13,16,19,22.50
2018,05,13,16,20,22.50
2018,05,13,16,21,22.40
2018,05,13,16,22,22.30
2018,05,13,16,23,22.30
2018,05,13,16,24,22.30
2018,05,13,16,25,22.30
2018,05,13,16,26,22.20
2018,05,13,16,27,22.20
2018,05,13,16,28,22.20
2018,05,13,16,29,22.30
2018,05,13,16,30,22.30
2018,05,13,16,31,22.30
2018,05,13,16,32,22.30
2018,05,13,16,33,22.30
2018,05,13,16,34,22.30
2018,05,13,16,35,22.30
2018,05,13,16,36,22.30
2018,05,13,16,37,22.40
2018,05,13,16,38,22.40
2018,05,13,16,39,22.40
2018,05,13,16,40,22.40
2018,05,13,16,41,22.40
2018,05,13,16,42,22.50
2018,05,13,16,43,22.50
2018,05,13,16,44,22.50
2018,05,13,16,45,22.60
2018,05,13,16,46,22.60
2018,05,13,16,47,22.70
2018,05,13,16,48,22.70
2018,05,13,16,49,22.70
2018,05,13,16,50,22.70
2018,05,13,16,51,22.80
2018,05,13,16,52,22.80
2018,05,13,16,53,22.90
2018,05,13,16,54,22.90
2018,05,13,16,55,22.90
2018,05,13,16,56,22.90
2018,05,13,16,57,22.80
2018,05,13,16,58,22.80
2018,05,13,16,59,22.80
2018,05,13,17,00,22.80
2018,05,13,17,01,22.80
2018,05,13,17,02,22.80
2018,05,13,17,03,22.80
2018,05,13,17,04,22.80
2018,05,13,17,05,22.80
2018,05,13,17,06,22.90
2018,05,13,17,07,22.90
2018,05,13,17,08,22.90
2018,05,13,17,09,22.90
2018,05,13,17,10,23.00
2018,05,13,17,11,23.10
2018,05,13,17,12,23.10
2018,05,13,17,13,23.20
2018,05,13,17,14,23.20
2018,05,13,17,15,23.20
2018,05,13,17,16,23.20
2018,05,13,17,17,23.20
2018,05,13,17,18,23.20
2018,05,13,17,19,23.20